NOAA 16 DEB, 42379

Orbit data source: Space-Track

NOAA 16 DEB, 42379 is space debris in SSO originally from a launch on Thu, 21 Sep 2000 UTC launched from the Air Force Western Test Range (AFWTR). Debris objects in space refer to the collection of defunct objects orbiting the Earth. Examples of debris include non-operational satellites, rocket bodies, and fragments generated from explosions, collisions, or faulty payload assembly.

Loading next visibility...
Identifier
42379, 2000-055RX
Orbit
SSO
Country
Flag of USUS
Related business
Manufacturer
Unknown
Mission
Spacecraft
Bus & Motor
Unknown
Mass
Unknown
Launch date (UTC)
2000-09-21 (25 years ago)
Launch vehicle
Unknown
Launch site
Air Force Western Test Range (AFWTR)
Object type
Payload
Rocket body
Debris
Shape & HBR
Unknown shape, 0.1 m
Radar Cross Section
Small (<0.1 m²)

Expand to show TLE details & history
Last TLE update: 18 hours ago

TLE from 18 hours ago
0 NOAA 16 DEB
1 42379U 00055RX  26036.98618334  .00042671  00000-0  62661-2 0  9997
2 42379  98.9338 237.4030 0021703 146.0399 214.2202 14.75164848516857
Epoch: 2026-02-05T23:40Z
TLE epoch observation values (Epoch: 2026-02-05T23:40:06.240Z)
Latitude
0.00004°
Longitude
106.24645°
Altitude
660.226 km
Speed
7.52 km/s
True Right ascension
15h 49m 36s
True Declination
0° 00' 00"
Sunlit
Object was in daylight at epoch
Visualization orbit readout
Latitude
Unknown
Longitude
Unknown
Altitude
Unknown
Speed
Unknown
Apparent Right ascension
Unknown
Apparent Declination
Unknown
Sunlit
N/A
Visualization observer readout
Local Sidereal Time
20:01:47
Azimuth
Unknown
Elevation
Unknown
Doppler factor
Unknown
Orbital elements
Apogee altitude
656.96 km
Perigee altitude
626.489 km
Semi-major axis
7,019.861 km
Eccentricity
0.00217
Inclination
98.9338°
RAAN
237.403°
Arg. of periapsis
146.0399°
True anomaly
214.08065°
Mean anomaly
214.2202°
Eccentric anomaly
214.15039°
Mean motion
3.6902 °/min
Orbital period
97.56 mins
BSTAR
0.0062661
Loading maneuver chart data...
Computing Atmospheric mass density...
Loading historical data...
Loading historical data...
Loading historical data...
Loading historical data...
Loading historical data...
Loading historical data...
Loading historical data...

Documentation

Showing up to 5 results
|